| time (UTC) | temp F | wind direction | speed knots | gust knots | rain 1hr in | rain 24hr in | rain mn in | humidity % | barometer mb |
| 20260504081506 | 67 | 169 | 3.5 | 10.4 | 0.00 | 0.00 | 0.00 | 62 | 1015.4 |
| 20260504044535 | 62 | 197 | 0.0 | 2.6 | 0.00 | 0.00 | 0.00 | 60 | 1015.5 |
| 20260504043028 | 62 | 197 | 0.0 | 0.0 | 0.00 | 0.00 | 0.00 | 58 | 1015.6 |
| 20260504041527 | 61 | 197 | 0.0 | 0.0 | 0.00 | 0.00 | 0.00 | 58 | 1015.5 |
| 20260504040024 | 61 | 197 | 0.0 | 0.0 | 0.00 | 0.00 | 0.00 | 58 | 1015.4 |
| 20260504034534 | 60 | 196 | 0.0 | 0.0 | 0.00 | 0.00 | 0.00 | 59 | 1015.3 |
| 20260504033023 | 60 | 197 | 0.0 | 0.0 | 0.00 | 0.00 | 0.00 | 59 | 1015.3 |
| 20260504031522 | 61 | 197 | 0.0 | 0.0 | 0.00 | 0.00 | 0.00 | 59 | 1015.2 |
| 20260504030036 | 61 | 197 | 0.0 | 0.9 | 0.00 | 0.00 | 0.00 | 60 | 1015.5 |
| 20260504024517 | 61 | 197 | 0.0 | 0.0 | 0.00 | 0.00 | 0.00 | 60 | 1015.7 |
| 20260504023018 | 61 | 197 | 0.0 | 0.0 | 0.00 | 0.00 | 0.00 | 60 | 1015.8 |
| 20260504021616 | 61 | 197 | 0.0 | 0.0 | 0.00 | 0.00 | 0.00 | 59 | 1015.8 |
| 20260504020017 | 61 | 196 | 0.0 | 1.7 | 0.00 | 0.00 | 0.00 | 60 | 1015.7 |
| 20260504014530 | 61 | 91 | 0.9 | 4.3 | 0.00 | 0.00 | 0.00 | 60 | 1015.6 |
| 20260504013010 | 62 | 124 | 0.9 | 3.5 | 0.00 | 0.00 | 0.00 | 59 | 1015.6 |
| 20260504011507 | 62 | 151 | 2.6 | 6.1 | 0.00 | 0.00 | 0.00 | 61 | 1015.7 |
| 20260504010005 | 62 | 192 | 0.9 | 6.1 | 0.00 | 0.00 | 0.00 | 63 | 1015.8 |
| 20260504004509 | 62 | 142 | 0.9 | 4.3 | 0.00 | 0.00 | 0.00 | 62 | 1016.2 |
| 20260504003100 | 62 | 130 | 1.7 | 5.2 | 0.00 | 0.00 | 0.00 | 59 | 1016.6 |
| 20260504003003 | 62 | 114 | 1.7 | 5.2 | 0.00 | 0.00 | 0.00 | 59 | 1016.6 |
| 20260504001607 | 63 | 164 | 0.0 | 0.9 | 0.00 | 0.00 | 0.00 | 58 | 1017.0 |
| 20260504000057 | 63 | 89 | 0.9 | 2.6 | 0.00 | 0.00 | 0.00 | 58 | 1016.9 |
| 20260503234555 | 63 | 156 | 0.0 | 2.6 | 0.00 | 0.00 | 0.00 | 59 | 1017.1 |
| 20260503233057 | 63 | 144 | 0.9 | 8.7 | 0.00 | 0.00 | 0.00 | 61 | 1017.1 |
| 20260503231556 | 63 | 126 | 4.3 | 12.2 | 0.00 | 0.00 | 0.00 | 63 | 1017.1 |
| 20260503230058 | 63 | 154 | 4.3 | 13.0 | 0.00 | 0.00 | 0.00 | 62 | 1016.9 |
| 20260503224548 | 63 | 186 | 3.5 | 8.7 | 0.00 | 0.00 | 0.00 | 62 | 1018.2 |
| 20260503223051 | 63 | 146 | 2.6 | 7.8 | 0.00 | 0.00 | 0.00 | 61 | 1017.9 |
| 20260503221545 | 63 | 248 | 2.6 | 10.4 | 0.00 | 0.00 | 0.00 | 60 | 1017.7 |
| 20260503220041 | 63 | 173 | 5.2 | 8.7 | 0.00 | 0.00 | 0.00 | 59 | 1017.5 |
| 20260503214539 | 63 | 110 | 4.3 | 9.6 | 0.00 | 0.00 | 0.00 | 57 | 1016.9 |
| 20260503213056 | 63 | 246 | 3.5 | 9.6 | 0.00 | 0.00 | 0.00 | 57 | 1016.9 |
| 20260503211537 | 63 | 208 | 3.5 | 9.6 | 0.00 | 0.00 | 0.00 | 56 | 1017.2 |
| 20260503210045 | 63 | 196 | 3.5 | 10.4 | 0.00 | 0.00 | 0.00 | 56 | 1017.1 |
| 20260503204547 | 63 | 169 | 2.6 | 7.8 | 0.00 | 0.00 | 0.00 | 56 | 1017.1 |
| 20260503203036 | 63 | 187 | 4.3 | 12.2 | 0.00 | 0.00 | 0.00 | 57 | 1017.2 |
| 20260503201537 | 63 | 291 | 3.5 | 12.2 | 0.00 | 0.00 | 0.00 | 57 | 1017.1 |
| 20260503200035 | 63 | 151 | 1.7 | 13.9 | 0.00 | 0.00 | 0.00 | 57 | 1017.1 |
| 20260503194536 | 63 | 172 | 3.5 | 10.4 | 0.00 | 0.00 | 0.00 | 57 | 1017.2 |
| 20260503193044 | 63 | 169 | 2.6 | 13.0 | 0.00 | 0.00 | 0.00 | 57 | 1017.3 |
| 20260503191532 | 63 | 243 | 3.5 | 10.4 | 0.00 | 0.00 | 0.00 | 58 | 1017.0 |
| 20260503190034 | 64 | 167 | 4.3 | 13.0 | 0.00 | 0.00 | 0.00 | 59 | 1016.8 |
| 20260503184537 | 64 | 149 | 6.1 | 13.0 | 0.00 | 0.00 | 0.00 | 58 | 1016.5 |
| 20260503183030 | 64 | 159 | 3.5 | 10.4 | 0.00 | 0.00 | 0.00 | 53 | 1016.5 |
| 20260503181529 | 65 | 223 | 4.3 | 12.2 | 0.00 | 0.00 | 0.00 | 48 | 1016.3 |
| 20260503180032 | 66 | 184 | 3.5 | 8.7 | 0.00 | 0.00 | 0.00 | 44 | 1016.3 |
| 20260503174528 | 66 | 188 | 1.7 | 13.9 | 0.00 | 0.00 | 0.00 | 44 | 1016.2 |
| 20260503173039 | 66 | 188 | 4.3 | 13.9 | 0.00 | 0.00 | 0.00 | 47 | 1016.2 |
| 20260503171525 | 65 | 153 | 2.6 | 8.7 | 0.00 | 0.00 | 0.00 | 53 | 1016.4 |
| 20260503120121 | 67 | 115 | 4.3 | 15.6 | 0.00 | 0.00 | 0.00 | 49 | 1019.0 |